When you browse on this site, cookies collect data to enhance your experience and personalize the content and advertising you see.
Visit our Privacy Policy to learn more. By continuing to use the site, you agree to this use of cookies and data.
  • în România
  • Lista ţărilor
  • Pe 7 zile
  • Temperatura apei
  • Hartă satelitară
  • Meteo pe hartă
  • Widget-uri
  • user-avatar
    Intrare

    Meteo pe oră la Ascheffel

    Astăzi, 16 Iulie, Marţi

    Timp Temperatura Precipitaţii Vânt Presiune Umiditate
    00:00 +13°C° 0 mm 5 m/s 758 mmHg 87%
    01:00 +13°C° 0 mm 5 m/s 758 mmHg 89%
    02:00 +13°C° 0 mm 5 m/s 758 mmHg 88%
    03:00 +14°C° 0 mm 5 m/s 758 mmHg 87%
    04:00 +14°C° 0 mm 5 m/s 757 mmHg 86%
    05:00 +14°C° 0 mm 5 m/s 757 mmHg 85%
    06:00 +14°C° 0 mm 5 m/s 758 mmHg 85%
    07:00 +14°C° 0 mm 5 m/s 758 mmHg 84%
    08:00 +15°C° 0 mm 5 m/s 758 mmHg 82%
    09:00 +16°C° 0 mm 5 m/s 758 mmHg 80%
    10:00 +16°C° 0 mm 5 m/s 758 mmHg 77%
    11:00 +17°C° 0 mm 5 m/s 758 mmHg 76%
    12:00 +17°C° 0 mm 5 m/s 758 mmHg 74%
    13:00 +19°C° 0 mm 5 m/s 758 mmHg 72%
    14:00 +19°C° 0 mm 5 m/s 758 mmHg 74%
    15:00 +17°C° 0 mm 5 m/s 758 mmHg 75%
    16:00 +17°C° 0 mm 5 m/s 758 mmHg 76%
    17:00 +17°C° 0 mm 4 m/s 758 mmHg 78%
    18:00 +17°C° 0 mm 4 m/s 758 mmHg 80%
    19:00 +17°C° 0 mm 4 m/s 758 mmHg 82%
    20:00 +15°C° 0 mm 4 m/s 759 mmHg 85%
    21:00 +13°C° 0 mm 4 m/s 759 mmHg 89%
    22:00 +12°C° 0 mm 3 m/s 759 mmHg 92%
    23:00 +12°C° 0 mm 3 m/s 759 mmHg 92%

    Mâine, 17 Iulie, Miercuri

    Timp Temperatura Precipitaţii Vânt Presiune Umiditate
    00:00 +12°C° 0 mm 3 m/s 759 mmHg 93%
    01:00 +12°C° 0 mm 3 m/s 759 mmHg 93%
    02:00 +11°C° 0 mm 3 m/s 759 mmHg 93%
    03:00 +11°C° 0 mm 3 m/s 759 mmHg 93%
    04:00 +12°C° 0 mm 2 m/s 759 mmHg 94%
    05:00 +13°C° 0 mm 2 m/s 759 mmHg 91%
    06:00 +14°C° 0 mm 2 m/s 759 mmHg 89%
    07:00 +14°C° 0 mm 2 m/s 759 mmHg 87%
    08:00 +15°C° 0 mm 2 m/s 759 mmHg 83%
    09:00 +16°C° 0 mm 2 m/s 759 mmHg 78%
    10:00 +17°C° 0 mm 2 m/s 759 mmHg 74%
    11:00 +18°C° 0 mm 2 m/s 759 mmHg 71%
    12:00 +19°C° 0 mm 2 m/s 759 mmHg 68%
    13:00 +20°C° 0 mm 2 m/s 758 mmHg 66%
    14:00 +20°C° 0 mm 2 m/s 758 mmHg 66%
    15:00 +20°C° 0 mm 2 m/s 758 mmHg 66%
    16:00 +20°C° 0 mm 2 m/s 758 mmHg 66%
    17:00 +20°C° 0 mm 2 m/s 758 mmHg 72%
    18:00 +19°C° 0 mm 2 m/s 758 mmHg 76%
    19:00 +19°C° 0 mm 2 m/s 758 mmHg 80%
    20:00 +17°C° 0 mm 2 m/s 758 mmHg 84%
    21:00 +16°C° 0 mm 2 m/s 758 mmHg 89%
    22:00 +14°C° 0 mm 2 m/s 758 mmHg 93%
    23:00 +14°C° 0 mm 2 m/s 758 mmHg 93%

    Poimâine, 18 Iulie, Joi

    Timp Temperatura Precipitaţii Vânt Presiune Umiditate
    00:00 +13°C° 0 mm 1 m/s 757 mmHg 93%
    01:00 +13°C° 0 mm 1 m/s 757 mmHg 93%
    02:00 +13°C° 0 mm 1 m/s 757 mmHg 93%
    03:00 +12°C° 0 mm 0 m/s 757 mmHg 93%
    04:00 +11°C° 0 mm 0 m/s 757 mmHg 92%
    05:00 +13°C° 0 mm 0 m/s 757 mmHg 89%
    06:00 +14°C° 0 mm 0 m/s 757 mmHg 86%
    07:00 +15°C° 0 mm 0 m/s 756 mmHg 83%
    08:00 +18°C° 0 mm 1 m/s 756 mmHg 78%
    09:00 +20°C° 0 mm 1 m/s 757 mmHg 73%
    10:00 +20°C° 0 mm 2 m/s 757 mmHg 67%
    11:00 +21°C° 0.1 mm 2 m/s 756 mmHg 64%
    12:00 +23°C° 0.1 mm 2 m/s 756 mmHg 61%
    13:00 +23°C° 0.1 mm 2 m/s 756 mmHg 58%
    14:00 +23°C° 0 mm 2 m/s 756 mmHg 57%
    15:00 +24°C° 0 mm 2 m/s 755 mmHg 57%
    16:00 +24°C° 0 mm 2 m/s 755 mmHg 56%
    17:00 +23°C° 0 mm 2 m/s 755 mmHg 63%
    18:00 +21°C° 0 mm 2 m/s 755 mmHg 69%
    19:00 +21°C° 0 mm 2 m/s 755 mmHg 76%
    20:00 +19°C° 0 mm 2 m/s 755 mmHg 78%
    21:00 +18°C° 0 mm 2 m/s 755 mmHg 81%
    22:00 +17°C° 0 mm 2 m/s 755 mmHg 84%
    23:00 +17°C° 0 mm 2 m/s 754 mmHg 83%

    19 Iulie, Vineri

    Timp Temperatura Precipitaţii Vânt Presiune Umiditate
    00:00 +17°C° 0 mm 2 m/s 754 mmHg 83%
    01:00 +17°C° 0 mm 2 m/s 754 mmHg 82%
    02:00 +17°C° 0 mm 2 m/s 754 mmHg 83%
    03:00 +17°C° 0 mm 2 m/s 754 mmHg 84%
    04:00 +17°C° 0 mm 2 m/s 753 mmHg 85%
    05:00 +17°C° 0 mm 2 m/s 754 mmHg 86%
    06:00 +17°C° 0 mm 3 m/s 754 mmHg 87%
    07:00 +17°C° 0 mm 3 m/s 754 mmHg 87%
    08:00 +18°C° 0.2 mm 3 m/s 754 mmHg 82%
    09:00 +19°C° 0.2 mm 4 m/s 755 mmHg 77%
    10:00 +20°C° 0.2 mm 5 m/s 755 mmHg 71%
    11:00 +21°C° 0 mm 5 m/s 755 mmHg 66%
    12:00 +21°C° 0 mm 5 m/s 756 mmHg 62%
    13:00 +22°C° 0 mm 6 m/s 756 mmHg 57%
    14:00 +21°C° 0 mm 5 m/s 756 mmHg 59%
    15:00 +21°C° 0 mm 5 m/s 757 mmHg 60%
    16:00 +21°C° 0 mm 4 m/s 757 mmHg 62%
    17:00 +20°C° 0 mm 4 m/s 757 mmHg 67%
    18:00 +19°C° 0 mm 3 m/s 758 mmHg 71%
    19:00 +18°C° 0 mm 3 m/s 758 mmHg 76%
    20:00 +17°C° 0 mm 3 m/s 758 mmHg 81%
    21:00 +15°C° 0 mm 2 m/s 759 mmHg 86%
    22:00 +14°C° 0 mm 2 m/s 759 mmHg 91%
    23:00 +13°C° 0 mm 2 m/s 759 mmHg 91%

    20 Iulie, Sâmbătă

    Timp Temperatura Precipitaţii Vânt Presiune Umiditate
    00:00 +13°C° 0 mm 2 m/s 759 mmHg 92%
    01:00 +13°C° 0 mm 2 m/s 759 mmHg 93%
    02:00 +13°C° 0 mm 1 m/s 759 mmHg 93%
    03:00 +12°C° 0 mm 1 m/s 759 mmHg 93%
    04:00 +12°C° 0 mm 1 m/s 759 mmHg 93%
    05:00 +13°C° 0 mm 1 m/s 759 mmHg 89%
    06:00 +15°C° 0 mm 1 m/s 759 mmHg 86%
    07:00 +16°C° 0 mm 1 m/s 760 mmHg 82%
    08:00 +17°C° 0 mm 2 m/s 760 mmHg 77%
    09:00 +19°C° 0 mm 2 m/s 760 mmHg 72%
    10:00 +20°C° 0 mm 2 m/s 760 mmHg 67%
    11:00 +21°C° 0.1 mm 2 m/s 760 mmHg 66%
    12:00 +21°C° 0.1 mm 2 m/s 760 mmHg 65%
    13:00 +23°C° 0.1 mm 2 m/s 760 mmHg 64%
    14:00 +20°C° 0.5 mm 2 m/s 760 mmHg 73%
    15:00 +20°C° 0.5 mm 1 m/s 760 mmHg 81%
    16:00 +19°C° 0.5 mm 1 m/s 760 mmHg 90%
    17:00 +19°C° 0.1 mm 1 m/s 760 mmHg 91%
    18:00 +17°C° 0.1 mm 2 m/s 760 mmHg 92%
    19:00 +17°C° 0.1 mm 3 m/s 760 mmHg 93%
    20:00 +17°C° 0 mm 3 m/s 761 mmHg 94%
    21:00 +16°C° 0 mm 3 m/s 761 mmHg 95%
    22:00 +16°C° 0 mm 3 m/s 761 mmHg 95%
    23:00 +14°C° 0 mm 3 m/s 761 mmHg 95%

    21 Iulie, Duminică

    Timp Temperatura Precipitaţii Vânt Presiune Umiditate
    00:00 +15°C° 0 mm 2 m/s 761 mmHg 96%
    01:00 +15°C° 0 mm 2 m/s 761 mmHg 96%
    02:00 +14°C° 0 mm 2 m/s 761 mmHg 96%
    03:00 +14°C° 0 mm 2 m/s 762 mmHg 95%
    04:00 +14°C° 0 mm 1 m/s 762 mmHg 95%
    05:00 +15°C° 0 mm 1 m/s 762 mmHg 93%
    06:00 +16°C° 0 mm 1 m/s 762 mmHg 90%
    07:00 +19°C° 0 mm 1 m/s 762 mmHg 88%
    08:00 +20°C° 0 mm 1 m/s 762 mmHg 82%
    09:00 +22°C° 0 mm 1 m/s 763 mmHg 75%
    10:00 +24°C° 0 mm 1 m/s 763 mmHg 69%
    11:00 +24°C° 0.1 mm 1 m/s 763 mmHg 67%
    12:00 +25°C° 0.1 mm 1 m/s 763 mmHg 65%
    13:00 +26°C° 0.1 mm 2 m/s 763 mmHg 63%
    14:00 +26°C° 0.2 mm 2 m/s 763 mmHg 64%
    15:00 +26°C° 0.2 mm 2 m/s 763 mmHg 66%
    16:00 +26°C° 0.2 mm 2 m/s 763 mmHg 67%
    17:00 +24°C° 0.2 mm 2 m/s 763 mmHg 73%
    18:00 +23°C° 0.2 mm 2 m/s 763 mmHg 79%
    19:00 +21°C° 0.2 mm 2 m/s 763 mmHg 85%
    20:00 +21°C° 0 mm 1 m/s 763 mmHg 87%
    21:00 +20°C° 0 mm 1 m/s 764 mmHg 89%
    22:00 +19°C° 0 mm 1 m/s 764 mmHg 91%
    23:00 +19°C° 0 mm 1 m/s 764 mmHg 91%
    Arată mai mult